Location: Martin Dies, Jr. State Park
(30.8429°N, 94.1720°W)
Time: 04:38:58
(UTC-06:00)

ISS - Pass Details

Date: 21 November 2019
Orbit: 411 x 421 km, 51.6° (Epoch: 16 December)

Event Time Altitude Azimuth Distance (km) Brightness Sun altitude
Rises 18:18:04 0° 235° (SW) 2,339 1.5 -13.3°
Reaches altitude 10° 18:20:12 10° 241° (WSW) 1,482 0.4 -13.7°
Maximum altitude 18:23:25 47° 317° (NW) 558 -3.0 -14.4°
Enters shadow 18:25:32 19° 25° (NNE) 1,057 -2.1 -14.8°
